Location: Newark
(48.6461°N, 4.3644°W)
Time: 13:24:12
(UTC+00:00)

A-11 Canister half - Pass Details

Date: 30 January 2020
Orbit: 1517 x 1683 km, 47.2° (Epoch: 24 February)

Event Time Altitude Azimuth Distance (km) Brightness Sun altitude
Exits shadow 05:13:30 35° 229° (SW) 2,251 9.4 -25.9°
Maximum altitude 05:14:14 36° 220° (SW) 2,236 9.5 -25.8°
Drops below altitude 10° 05:22:23 10° 158° (SSE) 3,699 11.2 -24.5°
Sets 05:25:45 0° 150° (SSE) 4,696 11.9 -23.9°
